[[{"header":{"parameterUnit":"m.s-1","parameterCategory":2,"la1":30.2991,"la2":30.254,"lo1":-89.0895,"lo2":-89.0444,"dy":0.0017,"dx":0.0017,"nx":28,"ny":28,"refTime":"2026-01-29T09:00:00:Z","depth":"0","parameterNumber":2,"parameterNumberName":"U-component_of_CURRENTS"},"data":[0,0,0,0,0,0,0,0,0,0,0,0,0,0,0,0,0,0,0,0,0,0,0,0,0,0,0,0,0,0,0,0,0,0,0,0,0,0,0,0,0,0,0,0,0,0,0,0,0,0,0,0,0,0,0,0,0,0,0.3676,0.3676,0,0.3695,0.3695,0.3695,0.3697,0.3697,0.3697,0.3697,0.3684,0.3684,0.3683,0,0,0,0,0,0,0,0,0,0,0,0,0,0.379,0.3787,0.3676,0.3676,0.3676,0.3695,0.3695,0.3695,0.3697,0.3697,0.3697,0.3697,0.3684,0.3684,0.3683,0,0,0,0,0,0,0,0,0,0,0,0,0,0.3766,0.3786,0.3675,0.3681,0.3682,0.3695,0.3695,0.3695,0.3697,0.3697,0.3697,0.3697,0.3684,0.3684,0.3683,0.3681,0,0,0.3682,0.3682,0,0,0,0,0,0,0,0,0.3767,0.3761,0.368,0.3681,0.3682,0.3696,0.3731,0.369,0.3697,0.3689,0.3697,0.3697,0.3686,0.3686,0.3687,0.368,0.368,0.3682,0.3682,0.3681,0.3681,0,0,0,0,0,0,0,0.3768,0.3761,0.3681,0.368,0.3682,0.3735,0.3729,0.3724,0.3685,0.369,0.3691,0.3696,0.3686,0.3687,0.3687,0.3679,0.3682,0.3681,0.3681,0.3681,0.373,0.3732,0,0,0,0,0,0,0.3761,0.3761,0.3681,0.3682,0.3728,0.3732,0.3726,0.3689,0.3686,0.3687,0.3696,0.3696,0.3688,0.3687,0.3686,0.3731,0.3681,0.3681,0.3681,0.3728,0.373,0.3732,0,0,0,0,0,0,0.3763,0.3752,0.368,0.3727,0.3722,0.3729,0.3689,0.369,0.3696,0.3692,0.3691,0.3701,0.3688,0.3687,0.3697,0.3729,0.3681,0.368,0.3727,0.3729,0.3731,0.379,0,0,0,0,0,0,0.3765,0.3751,0.373,0.3725,0.3719,0.369,0.3689,0.369,0.37,0.37,0.3696,0.3694,0.3688,0.3698,0.3697,0.3727,0.368,0.3725,0.3728,0.3731,0.3786,0.3794,0.3801,0,0,0,0,0,0.3769,0.3721,0.3728,0.372,0.3684,0.3691,0.3693,0.3699,0.37,0.3704,0.371,0.3695,0.3717,0.3699,0.3697,0.3728,0.3723,0.3727,0.373,0.3783,0.3793,0.3801,0,0,0,0,0,0,0.3759,0.3718,0.3724,0.3667,0.3688,0.3692,0.3691,0.3702,0.371,0.3709,0.3706,0.3705,0.373,0.372,0.37,0.3753,0.3721,0.3725,0.3762,0.3771,0.3778,0.3831,0.3679,0,0,0,0,0,0.3749,0.3699,0.3702,0.3664,0.3669,0.3687,0.3692,0.3701,0.3707,0.371,0.3713,0.3722,0.3743,0.3748,0.3754,0.3774,0.3852,0.3797,0.3805,0.3811,0.3855,0.401,0.4037,0.3744,0.3744,0.3744,0,0,0.3748,0.3709,0.3692,0.3661,0.3671,0.3705,0.3688,0.3694,0.373,0.3707,0.3742,0.3742,0.3753,0.3785,0.3795,0.378,0.3933,0.3816,0.3821,0.3863,0.4017,0.4046,0.4072,0.3746,0.3746,0.3746,0,0,0.3758,0.3678,0.3684,0.3683,0.3694,0.3702,0.3709,0.3724,0.3734,0.3763,0.3771,0.3804,0.3805,0.3845,0.3861,0.3916,0.3966,0.3901,0.3984,0.4133,0.4159,0.4184,0.4315,0.4351,0.3907,0.3907,0.3907,0,0.3785,0.3765,0.3696,0.3711,0.3733,0.3709,0.377,0.3764,0.3787,0.3832,0.378,0.3876,0.385,0.3961,0.3962,0.3937,0.4028,0.3944,0.4147,0.4173,0.4197,0.4326,0.4365,0.391,0.391,0.391,0.3909,0,0.3829,0.3819,0.3813,0.3826,0.383,0.3857,0.3856,0.3874,0.3874,0.3908,0.3994,0.3978,0.4068,0.4034,0.4001,0.4161,0.4171,0.4139,0.413,0.4231,0.4359,0.4399,0.3915,0.3914,0.3913,0.3912,0,0,0.3916,0.3871,0.3879,0.3917,0.3896,0.3919,0.3952,0.4029,0.4123,0.4098,0.4265,0.4224,0.4251,0.4273,0.4253,0.433,0.453,0.43,0.4307,0.4443,0.4876,0.4759,0.4791,0.4542,0.455,0.4555,0.4897,0,0.4021,0.4077,0.402,0.4105,0.4152,0.4113,0.4171,0.4212,0.4247,0.4383,0.4381,0.4495,0.4333,0.4404,0.4461,0.454,0.4638,0.4441,0.475,0.476,0.4654,0.4834,0.4524,0.4792,0.4935,0.4942,0.4947,0,0.4127,0.4145,0.4238,0.4283,0.4307,0.4346,0.4463,0.4513,0.4638,0.4682,0.4777,0.4795,0.4917,0.4765,0.4958,0.4848,0.4879,0.4896,0.491,0.4818,0.4717,0.4715,0.4858,0.4704,0.5007,0.5003,0.4998,0,0.4268,0.4309,0.4389,0.4392,0.4431,0.4487,0.4536,0.4629,0.4714,0.491,0.5022,0.515,0.5246,0.532,0.5271,0.5177,0.549,0.5384,0.5313,0.5305,0.5111,0.5073,0.5152,0.5561,0.556,0.5559,0.5558,0,0.4408,0.448,0.4457,0.4503,0.4621,0.4617,0.4782,0.4845,0.5011,0.5143,0.5203,0.5326,0.5383,0.5506,0.5471,0.5524,0.5667,0.5399,0.5413,0.5116,0.5077,0.4985,0.4914,0.5572,0.5569,0.5567,0.5564,0,0.4575,0.4548,0.464,0.4682,0.4679,0.4782,0.4876,0.5007,0.5141,0.5337,0.5411,0.5552,0.569,0.5728,0.5877,0.5768,0.5676,0.5808,0.5437,0.5398,0.5136,0.5079,0.512,0.4973,0.5849,0.5848,0.5848,0,0.4664,0.4717,0.4751,0.4774,0.4791,0.4893,0.4955,0.5066,0.5181,0.5412,0.5521,0.5718,0.5769,0.597,0.5857,0.5892,0.569,0.5626,0.5362,0.5149,0.5099,0.4934,0.4794,0.5144,0.5138,0.5133,0.5129,0,0.4831,0.4833,0.4898,0.4926,0.4965,0.5011,0.5103,0.52,0.5329,0.5455,0.5589,0.5659,0.5774,0.5624,0.566,0.5616,0.5337,0.5522,0.5419,0.4677,0.4394,0.4244,0.4895,0.5084,0.5089,0.5092,0.5095,0.5096,0.4937,0.5009,0.5031,0.505,0.5074,0.5073,0.5063,0.515,0.5243,0.5261,0.546,0.5381,0.5347,0.5315,0.5278,0.5004,0.504,0.4772,0.477,0.4663,0.4353,0.49,0.5009,0.5012,0.5016,0.5019,0.5021,0,0.5018,0.5059,0.5119,0.5084,0.5032,0.5044,0.5079,0.4986,0.4952,0.4995,0.4979,0.4823,0.4684,0.4651,0.4448,0.4248,0.406,0.414,0.3821,0.3756,0.4352,0.4142,0.3922,0.3922,0.3922,0.3923,0.3923,0.3923,0.5074,0.5094,0.5088,0.4958,0.4914,0.4735,0.4688,0.4565,0.4519,0.4259,0.4062,0.4031,0.4158,0.4095,0.3846,0.3745,0.3474,0.3293,0.3389,0.3758,0.3814,0.3868,0.3654,0.3335,0.3334,0.256,0.2554,0.255]},{"header":{"parameterUnit":"m.s-1","parameterCategory":2,"la1":30.2991,"la2":30.254,"lo1":-89.0895,"lo2":-89.0444,"dy":0.0017,"dx":0.0017,"nx":28,"ny":28,"refTime":"2026-01-29T09:00:00:Z","depth":"0","parameterNumber":3,"parameterNumberName":"V-component_of_CURRENTS"},"data":[0,0,0,0,0,0,0,0,0,0,0,0,0,0,0,0,0,0,0,0,0,0,0,0,0,0,0,0,0,0,0,0,0,0,0,0,0,0,0,0,0,0,0,0,0,0,0,0,0,0,0,0,0,0,0,0,0,0,0.0169,0.0169,0,0.0115,0.0115,0.0114,0.0065,0.0065,0.0064,0.0064,-0.0009,-0.0011,-0.0012,0,0,0,0,0,0,0,0,0,0,0,0,0,0.0109,0.0111,0.0169,0.0169,0.0168,0.0116,0.0115,0.0114,0.0065,0.0065,0.0064,0.0064,-0.0009,-0.001,-0.0012,0,0,0,0,0,0,0,0,0,0,0,0,0,0.0102,0.0112,0.0169,0.0139,0.0136,0.0116,0.0115,0.0114,0.0065,0.0065,0.0064,0.0064,-0.0008,-0.001,-0.0013,-0.0014,0,0,-0.002,-0.0021,0,0,0,0,0,0,0,0,0.0103,0.0104,0.0144,0.0141,0.0138,0.0098,0.0067,0.007,0.0066,0.009,0.0064,0.0063,0.0027,0.0021,0.001,-0.0018,-0.0021,-0.002,-0.0021,-0.0022,-0.0023,0,0,0,0,0,0,0,0.0104,0.0106,0.0146,0.0144,0.014,0.0087,0.0086,0.0067,0.0061,0.0088,0.0085,0.0082,0.0024,0.0013,0.0008,-0.0022,-0.002,-0.0022,-0.0023,-0.0024,-0.005,-0.0049,0,0,0,0,0,0,0.0121,0.0107,0.0148,0.0145,0.012,0.0089,0.0088,0.011,0.0061,0.0054,0.0083,0.008,0.0017,0.0011,0.0006,0.0025,-0.0022,-0.0024,-0.0026,-0.005,-0.0049,-0.0049,0,0,0,0,0,0,0.0121,0.0127,0.015,0.0124,0.0124,0.0092,0.0116,0.0109,0.01,0.0058,0.0049,0.0081,0.0016,0.0009,-0.0005,0.0021,-0.0026,-0.0028,-0.0051,-0.005,-0.0049,0.0048,0,0,0,0,0,0,0.012,0.0127,0.0146,0.0127,0.0126,0.0155,0.0117,0.0109,0.01,0.0096,0.0054,0.0046,0.0015,-0.0001,-0.0007,0.0017,-0.0029,-0.0052,-0.0051,-0.0049,0.0044,0.0053,0.006,0,0,0,0,0,0.0118,0.016,0.0148,0.0152,0.0155,0.0156,0.0152,0.0123,0.0101,0.011,0.0075,0.0047,0.0003,-0.0002,-0.001,0.0014,-0.0053,-0.0051,-0.0049,0.0041,0.0051,0.006,0,0,0,0,0,0,0.0148,0.0158,0.0145,0.0188,0.0176,0.0149,0.0154,0.0131,0.0109,0.0102,0.0056,0.0047,0.0041,0.0014,0.0009,0.0009,-0.0029,-0.0029,0.0042,0.0051,0.0059,0.0094,-0.0031,0,0,0,0,0,0.0163,0.0194,0.0185,0.0216,0.0215,0.0182,0.0176,0.0159,0.0138,0.0127,0.0096,0.0064,0.0042,0.0036,0.0009,0.0015,-0.0002,0.0024,0.0032,0.0039,0.0062,0.0053,0.0063,-0.0043,-0.0043,-0.0043,0,0,0.0179,0.019,0.0206,0.0223,0.0208,0.0231,0.0178,0.0181,0.0198,0.0123,0.0133,0.0087,0.0047,0.0049,0.0045,0.0032,0.006,0.0041,0.0048,0.0067,0.0056,0.0067,0.0076,-0.0042,-0.0042,-0.0043,0,0,0.0233,0.0241,0.0281,0.0284,0.0278,0.0265,0.0271,0.0249,0.0237,0.0235,0.0184,0.0159,0.0128,0.0109,0.0094,0.013,0.0096,0.0116,0.0195,0.0186,0.0196,0.0204,0.02,0.0207,0.0129,0.0129,0.0129,0,0.0248,0.0307,0.0289,0.0327,0.0343,0.029,0.0335,0.0319,0.0293,0.0296,0.0253,0.0214,0.0162,0.0183,0.0182,0.0152,0.0141,0.0164,0.0199,0.0206,0.0213,0.0207,0.0214,0.0134,0.0133,0.0133,0.0132,0,0.033,0.0373,0.0397,0.0436,0.0449,0.0477,0.0461,0.0458,0.0427,0.0412,0.041,0.034,0.0322,0.0294,0.0243,0.027,0.0246,0.0205,0.0181,0.023,0.022,0.0225,0.0141,0.0139,0.0138,0.0136,0,0,0.0379,0.0444,0.0452,0.0494,0.0513,0.0538,0.0564,0.0583,0.0621,0.0565,0.0619,0.0535,0.049,0.0469,0.0405,0.0387,0.0398,0.032,0.0317,0.0329,0.039,0.0352,0.0353,0.0364,0.0365,0.0366,0.0367,0,0.0445,0.0548,0.0562,0.0656,0.0708,0.0686,0.0727,0.0733,0.0724,0.076,0.0684,0.0707,0.0562,0.0569,0.0518,0.0446,0.0416,0.0403,0.0331,0.033,0.0299,0.0359,0.0324,0.0321,0.0371,0.0372,0.0373,0,0.0524,0.0587,0.0693,0.0785,0.0806,0.0851,0.0919,0.0954,0.0973,0.0971,0.0956,0.0909,0.088,0.0754,0.064,0.064,0.0517,0.0443,0.044,0.0379,0.0301,0.0277,0.0327,0.012,0.0379,0.0379,0.0378,0,0.0576,0.0684,0.0776,0.0806,0.0891,0.0932,0.0978,0.1015,0.1088,0.1129,0.12,0.1118,0.1124,0.0968,0.0768,0.0718,0.0653,0.0566,0.0416,0.0412,0.0357,0.0346,0.021,0.0481,0.0481,0.0481,0.0481,0,0.0646,0.0719,0.081,0.0859,0.0984,0.1017,0.1148,0.1173,0.1273,0.1409,0.1323,0.1423,0.1176,0.1098,0.0875,0.0678,0.0726,0.0455,0.0419,0.0388,0.0381,0.0175,0.0047,0.0481,0.0481,0.0481,0.0481,0,0.0673,0.0732,0.0847,0.0959,0.1012,0.1098,0.1271,0.1375,0.1452,0.1639,0.1679,0.167,0.1584,0.1327,0.1102,0.0844,0.0522,0.0553,0.0536,0.0496,0.0145,0.0025,-0.0147,-0.022,0.0407,0.0406,0.0406,0,0.0692,0.0761,0.0918,0.101,0.1064,0.121,0.1328,0.1445,0.1589,0.181,0.1927,0.1915,0.1929,0.1587,0.1147,0.0779,0.0543,0.0478,0.0355,0.0148,-0.0013,-0.0108,-0.0164,0.0321,0.032,0.0319,0.0318,0,0.0749,0.0802,0.0898,0.1085,0.1225,0.1398,0.1586,0.1731,0.1912,0.2103,0.2331,0.2377,0.2053,0.1669,0.1133,0.0857,0.0325,0.0444,0.0235,-0.0076,-0.0192,-0.0286,0.03,0.0308,0.0309,0.031,0.031,0.0311,0.0797,0.0873,0.1022,0.1191,0.136,0.1584,0.1737,0.1973,0.2249,0.2536,0.2579,0.2674,0.2096,0.1381,0.0997,0.025,0.0258,-0.0012,-0.0132,-0.0201,-0.0304,0.0268,0.0225,0.0226,0.0226,0.0226,0.0227,0,0.0899,0.0996,0.1141,0.1356,0.1543,0.1622,0.192,0.21,0.2438,0.2668,0.2852,0.2591,0.193,0.1242,0.0229,-0.0265,-0.043,-0.0515,-0.0671,-0.0692,-0.0178,-0.0215,-0.0362,-0.0362,-0.0362,-0.0361,-0.0361,-0.0361,0.0969,0.1131,0.1196,0.1496,0.1641,0.1896,0.2064,0.2335,0.2549,0.2797,0.2817,0.2784,0.2212,0.054,-0.0549,-0.0773,-0.108,-0.1189,-0.1288,-0.0977,-0.0939,-0.0904,-0.0968,-0.127,-0.1271,-0.1751,-0.1757,-0.1761]}],[{"header":{"parameterUnit":"m.s-1","parameterCategory":2,"la1":30.2991,"la2":30.254,"lo1":-89.0895,"lo2":-89.0444,"dy":0.0017,"dx":0.0017,"nx":28,"ny":28,"refTime":"2026-01-29T09:00:00:Z","depth":"2","parameterNumber":2,"parameterNumberName":"U-component_of_CURRENTS"},"data":[0,0,0,0,0,0,0,0,0,0,0,0,0,0,0,0,0,0,0,0,0,0,0,0,0,0,0,0,0,0,0,0,0,0,0,0,0,0,0,0,0,0,0,0,0,0,0,0,0,0,0,0,0,0,0,0,0,0,0.3069,0.307,0,0.3128,0.3128,0.3128,0.3149,0.3149,0.3149,0.3149,0.3171,0.3171,0.3172,0,0,0,0,0,0,0,0,0,0,0,0,0,0.2957,0.2959,0.3069,0.307,0.3071,0.3128,0.3128,0.3128,0.3149,0.3149,0.3149,0.3149,0.3171,0.3171,0.3172,0,0,0,0,0,0,0,0,0,0,0,0,0,0.3007,0.2959,0.3069,0.309,0.3093,0.3127,0.3128,0.3129,0.3149,0.3149,0.3149,0.3149,0.3171,0.3171,0.3172,0.3174,0,0,0.3174,0.3175,0,0,0,0,0,0,0,0,0.3004,0.301,0.3086,0.3089,0.3092,0.3134,0.3097,0.3143,0.3149,0.3124,0.3149,0.3149,0.3157,0.3159,0.3166,0.3175,0.3176,0.3174,0.3175,0.3175,0.3175,0,0,0,0,0,0,0,0.3,0.3008,0.3089,0.3087,0.3091,0.3091,0.3098,0.3105,0.3136,0.3127,0.3129,0.3141,0.3158,0.3165,0.3166,0.3177,0.3174,0.3175,0.3176,0.3176,0.3261,0.3263,0,0,0,0,0,0,0.3001,0.3005,0.3087,0.3091,0.3051,0.3094,0.3101,0.3118,0.3137,0.3141,0.3141,0.3141,0.3164,0.3165,0.3167,0.3228,0.3175,0.3176,0.3176,0.3259,0.3261,0.3263,0,0,0,0,0,0,0.2998,0.3008,0.3085,0.3051,0.3061,0.3096,0.3114,0.3119,0.3139,0.3149,0.3152,0.3157,0.3164,0.3166,0.3193,0.3226,0.3176,0.3177,0.3257,0.326,0.3262,0.3312,0,0,0,0,0,0,0.2995,0.3006,0.3021,0.3052,0.3064,0.3113,0.3114,0.312,0.3147,0.3149,0.3164,0.3165,0.3164,0.3192,0.3194,0.3226,0.3178,0.3255,0.3258,0.3262,0.3308,0.3316,0.3323,0,0,0,0,0,0.2991,0.3004,0.3021,0.3032,0.3082,0.3114,0.312,0.3141,0.3148,0.3159,0.3176,0.3165,0.3216,0.3194,0.3196,0.3229,0.3253,0.3257,0.3261,0.3305,0.3315,0.3323,0,0,0,0,0,0,0.2957,0.3009,0.3028,0.3056,0.3089,0.3118,0.3132,0.3149,0.3172,0.3175,0.3181,0.3184,0.3224,0.322,0.3197,0.3266,0.3236,0.324,0.3268,0.3277,0.3285,0.3313,0.3178,0,0,0,0,0,0.296,0.2989,0.3032,0.3057,0.3073,0.3106,0.3123,0.3141,0.3166,0.3176,0.319,0.3211,0.324,0.3253,0.327,0.33,0.334,0.3327,0.3334,0.334,0.3367,0.3465,0.3484,0.3277,0.3277,0.3277,0,0,0.2956,0.2987,0.3005,0.3053,0.3078,0.312,0.3116,0.3146,0.3185,0.3174,0.3222,0.3234,0.3255,0.3296,0.3314,0.3298,0.3418,0.3346,0.3351,0.3374,0.3472,0.3492,0.351,0.3279,0.3279,0.3279,0,0,0.2965,0.2989,0.3021,0.3054,0.31,0.3126,0.3139,0.3179,0.3198,0.3241,0.3255,0.3294,0.3319,0.3355,0.3374,0.3434,0.3454,0.3433,0.3494,0.3589,0.3607,0.3624,0.3691,0.3713,0.3437,0.3437,0.3438,0,0.2968,0.301,0.3033,0.3074,0.3109,0.3135,0.3181,0.3207,0.3252,0.3287,0.3263,0.3358,0.3357,0.3447,0.3463,0.3453,0.3503,0.3453,0.36,0.3617,0.3634,0.3698,0.3722,0.344,0.344,0.344,0.3439,0,0.3003,0.3044,0.3061,0.3133,0.3169,0.3205,0.3254,0.3291,0.3314,0.3354,0.3433,0.3444,0.3514,0.351,0.35,0.3619,0.3615,0.3597,0.3577,0.3658,0.372,0.3744,0.3444,0.3443,0.3443,0.3442,0,0,0.3015,0.3076,0.3091,0.3128,0.3203,0.3237,0.3306,0.3386,0.3457,0.3486,0.359,0.3617,0.3641,0.3665,0.3666,0.3729,0.3862,0.3713,0.3716,0.378,0.407,0.3954,0.3969,0.3876,0.388,0.3884,0.4064,0,0.3049,0.3113,0.315,0.3232,0.327,0.3325,0.3393,0.3469,0.3531,0.3634,0.3671,0.3762,0.3697,0.3745,0.3801,0.3861,0.3931,0.3815,0.3983,0.3989,0.3876,0.3995,0.3643,0.3764,0.4087,0.4091,0.4094,0,0.3088,0.3126,0.3199,0.3281,0.3308,0.337,0.3499,0.3566,0.3709,0.3768,0.387,0.391,0.4023,0.395,0.4102,0.4036,0.4067,0.409,0.4097,0.3994,0.3918,0.3739,0.3796,0.4135,0.4131,0.4128,0.4126,0,0.3084,0.3167,0.3221,0.3253,0.3354,0.3411,0.3477,0.3613,0.3695,0.3883,0.3972,0.4099,0.4187,0.4253,0.4275,0.4222,0.4433,0.4368,0.4294,0.4285,0.4022,0.3981,0.4495,0.4495,0.4495,0.4494,0.4494,0,0.3093,0.3141,0.3223,0.3263,0.3348,0.342,0.3559,0.3643,0.3807,0.3937,0.4045,0.4158,0.4271,0.4376,0.4375,0.4414,0.4523,0.4345,0.4343,0.4025,0.3985,0.4326,0.4304,0.4501,0.45,0.4498,0.4497,0,0.3051,0.3114,0.3186,0.3301,0.3352,0.3408,0.3585,0.3681,0.3837,0.4019,0.4087,0.4265,0.4399,0.4469,0.4607,0.4541,0.4588,0.4568,0.4173,0.412,0.4353,0.4331,0.4531,0.4529,0.4527,0.4525,0.4524,0,0.3033,0.3082,0.3206,0.3273,0.3325,0.3444,0.3538,0.3691,0.3792,0.4056,0.4122,0.4324,0.4411,0.4556,0.4514,0.4534,0.4595,0.4206,0.403,0.4388,0.4367,0.4348,0.433,0.3703,0.3695,0.3688,0.3683,0,0.3043,0.3095,0.3129,0.3264,0.3366,0.3441,0.3571,0.3621,0.3815,0.3943,0.4084,0.4177,0.4342,0.4193,0.4235,0.4187,0.4171,0.4074,0.4605,0.3733,0.3618,0.3593,0.36,0.3625,0.3631,0.3635,0.3639,0.3641,0.3056,0.3049,0.3154,0.3224,0.3347,0.3374,0.3363,0.3491,0.3569,0.3673,0.3884,0.3907,0.3967,0.3832,0.3717,0.3626,0.3898,0.3698,0.3714,0.3738,0.3596,0.3482,0.3437,0.3441,0.3445,0.3449,0.3452,0,0.3108,0.3085,0.3142,0.3178,0.3229,0.3342,0.3351,0.3275,0.3258,0.3437,0.3524,0.3266,0.3178,0.323,0.2996,0.2987,0.2927,0.2864,0.2737,0.2799,0.2853,0.2659,0.2256,0.2252,0.2248,0.2244,0,0,0.3117,0.3132,0.3068,0.3061,0.3108,0.3033,0.297,0.2888,0.2906,0.2856,0.2865,0.3117,0.3185,0.2701,0.2621,0.2394,0.2583,0.231,0.3279,0.3197,0.3246,0.3354,0.3129,0,0,0,0,0]},{"header":{"parameterUnit":"m.s-1","parameterCategory":2,"la1":30.2991,"la2":30.254,"lo1":-89.0895,"lo2":-89.0444,"dy":0.0017,"dx":0.0017,"nx":28,"ny":28,"refTime":"2026-01-29T09:00:00:Z","depth":"2","parameterNumber":3,"parameterNumberName":"V-component_of_CURRENTS"},"data":[0,0,0,0,0,0,0,0,0,0,0,0,0,0,0,0,0,0,0,0,0,0,0,0,0,0,0,0,0,0,0,0,0,0,0,0,0,0,0,0,0,0,0,0,0,0,0,0,0,0,0,0,0,0,0,0,0,0,0.0294,0.0294,0,0.0232,0.0231,0.023,0.0188,0.0188,0.0188,0.0187,0.0118,0.0116,0.0114,0,0,0,0,0,0,0,0,0,0,0,0,0,0.0317,0.0317,0.0294,0.0294,0.0293,0.0232,0.0231,0.023,0.0188,0.0188,0.0188,0.0187,0.0118,0.0116,0.0114,0,0,0,0,0,0,0,0,0,0,0,0,0,0.0286,0.0317,0.0295,0.0265,0.0262,0.0232,0.0231,0.023,0.0188,0.0188,0.0188,0.0187,0.0119,0.0116,0.0114,0.0107,0,0,0.0107,0.0106,0,0,0,0,0,0,0,0,0.0288,0.0285,0.027,0.0267,0.0263,0.0218,0.0213,0.0189,0.0188,0.0216,0.0187,0.0187,0.0151,0.0146,0.0135,0.0104,0.0101,0.0106,0.0105,0.0104,0.0103,0,0,0,0,0,0,0,0.029,0.0287,0.0269,0.0269,0.0265,0.0234,0.023,0.0208,0.0186,0.0213,0.021,0.0204,0.0149,0.0137,0.0133,0.01,0.0107,0.0104,0.0103,0.0102,0.0069,0.0069,0,0,0,0,0,0,0.0302,0.029,0.0271,0.0268,0.0275,0.0234,0.0229,0.0232,0.0186,0.0179,0.0204,0.0202,0.0141,0.0136,0.013,0.0142,0.0104,0.0102,0.01,0.0068,0.0069,0.007,0,0,0,0,0,0,0.0303,0.0301,0.0274,0.0277,0.0271,0.0235,0.0238,0.0231,0.0223,0.018,0.0172,0.0203,0.0141,0.0133,0.0119,0.0138,0.0101,0.0098,0.0068,0.0068,0.0069,0.0151,0,0,0,0,0,0,0.0304,0.0302,0.0308,0.0278,0.0271,0.0271,0.0238,0.0231,0.0219,0.0216,0.0176,0.0169,0.014,0.0123,0.0117,0.0134,0.0097,0.0067,0.0068,0.0069,0.0148,0.0155,0.0161,0,0,0,0,0,0.0305,0.0322,0.0309,0.0306,0.0281,0.0272,0.0266,0.0237,0.022,0.0226,0.0196,0.017,0.0125,0.0122,0.0114,0.0131,0.0066,0.0068,0.0069,0.0145,0.0153,0.016,0,0,0,0,0,0,0.0332,0.0318,0.0303,0.0314,0.0298,0.0265,0.0265,0.0244,0.0224,0.0219,0.0177,0.0168,0.0161,0.0135,0.0132,0.0124,0.0092,0.0092,0.0152,0.016,0.0166,0.0192,0.0095,0,0,0,0,0,0.0342,0.0351,0.0328,0.0335,0.0331,0.0298,0.0289,0.0272,0.0249,0.0239,0.0211,0.0181,0.0159,0.0151,0.0125,0.0125,0.0092,0.013,0.0136,0.0142,0.0157,0.0121,0.0126,0.0074,0.0074,0.0074,0,0,0.0351,0.0345,0.0348,0.0341,0.0324,0.0338,0.0292,0.0288,0.0298,0.0236,0.0239,0.02,0.0162,0.0159,0.0154,0.0142,0.0137,0.0144,0.0149,0.0161,0.0123,0.0128,0.0133,0.0075,0.0074,0.0074,0,0,0.0384,0.0373,0.0395,0.0392,0.0378,0.0364,0.0368,0.0342,0.033,0.0325,0.0282,0.0259,0.0227,0.0207,0.0192,0.0219,0.0169,0.0207,0.0267,0.0232,0.0236,0.024,0.0198,0.0197,0.0216,0.0216,0.0216,0,0.0396,0.0425,0.0398,0.0422,0.0431,0.0385,0.0418,0.04,0.0372,0.037,0.0339,0.0294,0.0254,0.0257,0.0261,0.0236,0.0203,0.0243,0.0242,0.0244,0.0246,0.0203,0.02,0.022,0.022,0.0219,0.0219,0,0.045,0.0473,0.0487,0.0508,0.0512,0.0531,0.0511,0.0504,0.0479,0.0462,0.045,0.0391,0.0367,0.0347,0.0311,0.0312,0.0279,0.025,0.0226,0.0257,0.0208,0.0205,0.0226,0.0224,0.0223,0.0222,0,0,0.048,0.052,0.0525,0.0562,0.0564,0.0582,0.0592,0.06,0.0624,0.0572,0.0595,0.0535,0.0495,0.0475,0.0422,0.039,0.0361,0.0332,0.0329,0.0298,0.0278,0.0226,0.0217,0.033,0.0331,0.0331,0.0236,0,0.0533,0.061,0.061,0.0685,0.0728,0.07,0.0721,0.0717,0.0703,0.071,0.0637,0.064,0.0547,0.0544,0.049,0.04,0.0356,0.0389,0.0246,0.0242,0.0199,0.0213,0.0246,0.0162,0.0232,0.0231,0.0231,0,0.0594,0.064,0.0725,0.0794,0.0809,0.0842,0.0882,0.0901,0.0884,0.0874,0.0844,0.0785,0.0729,0.0649,0.05,0.0524,0.0409,0.0329,0.0322,0.0247,0.0185,0.0142,0.0152,0.0224,0.0224,0.0225,0.0225,0,0.0653,0.0729,0.0807,0.0828,0.0884,0.0914,0.0943,0.095,0.0999,0.099,0.1016,0.092,0.0896,0.0737,0.054,0.0525,0.0372,0.0328,0.0173,0.0167,0.0155,0.0148,0.0226,0.0226,0.0226,0.0227,0.0227,0,0.0727,0.0793,0.0842,0.0889,0.0988,0.0994,0.1102,0.1104,0.1146,0.1237,0.1112,0.1145,0.0918,0.0792,0.0591,0.0369,0.0401,0.0189,0.0144,0.0182,0.0179,0.0202,0.0201,0.0223,0.0224,0.0225,0.0225,0,0.0801,0.0823,0.0922,0.099,0.1024,0.1098,0.1226,0.1314,0.1314,0.1426,0.1432,0.1326,0.1156,0.0901,0.0656,0.0456,0.0239,0.015,0.0204,0.0166,0.0043,0.0047,-0.0026,-0.0028,-0.003,-0.0032,-0.0034,0,0.0855,0.0912,0.101,0.1078,0.1121,0.1239,0.134,0.1398,0.1509,0.1548,0.1614,0.1471,0.1389,0.0973,0.0614,0.0252,0.0212,0.0045,0.0015,0.0056,0.002,0.0027,0.0033,0.0026,0.0025,0.0025,0.0024,0,0.0976,0.0997,0.1077,0.1203,0.1317,0.1465,0.1608,0.1713,0.1799,0.185,0.1885,0.1807,0.1423,0.1046,0.0545,0.0309,0.0099,0.0017,0.006,0.0083,0.0097,0.0063,0.007,0.0018,0.0018,0.0019,0.0019,0.0019,0.1059,0.114,0.1231,0.1348,0.1483,0.1656,0.1779,0.193,0.2071,0.2145,0.2082,0.1955,0.1549,0.0885,0.0466,0.0036,0.0057,-0.0095,-0.0089,-0.0083,-0.0062,-0.0053,-0.0157,-0.0157,-0.0158,-0.0158,-0.0158,0,0.1175,0.1259,0.1381,0.1517,0.1663,0.1722,0.1939,0.204,0.219,0.226,0.2249,0.183,0.1404,0.0936,0.0292,-0.0094,-0.0099,-0.0212,-0.0135,-0.0126,-0.0119,-0.0097,-0.0203,-0.0204,-0.0205,-0.0206,0,0,0.1243,0.1377,0.1428,0.1642,0.1747,0.1935,0.205,0.2176,0.2248,0.2269,0.2202,0.2093,0.1525,0.1051,0.0526,0.0156,0.011,0.0091,0.0169,0.033,0.0342,-0.0012,0.0036,0,0,0,0,0]}],[{"header":{"parameterUnit":"m.s-1","parameterCategory":2,"la1":30.2991,"la2":30.254,"lo1":-89.0895,"lo2":-89.0444,"dy":0.0017,"dx":0.0017,"nx":28,"ny":28,"refTime":"2026-01-29T09:00:00:Z","depth":"4","parameterNumber":2,"parameterNumberName":"U-component_of_CURRENTS"},"data":[0,0,0,0,0,0,0,0,0,0,0,0,0,0,0,0,0,0,0,0,0,0,0,0,0,0,0,0,0,0,0,0,0,0,0,0,0,0,0,0,0,0,0,0,0,0,0,0,0,0,0,0,0,0,0,0,0,0,0.2016,0.2018,0,0.2129,0.213,0.2131,0.2216,0.2217,0.2218,0.2219,0.2333,0.2336,0.2338,0,0,0,0,0,0,0,0,0,0,0,0,0,0.183,0.1833,0.2016,0.2018,0.202,0.2129,0.213,0.2131,0.2215,0.2217,0.2218,0.2219,0.2333,0.2335,0.2338,0,0,0,0,0,0,0,0,0,0,0,0,0,0.1921,0.1834,0.2016,0.2077,0.2084,0.2129,0.213,0.2132,0.2215,0.2217,0.2218,0.222,0.2332,0.2335,0.2338,0.2326,0,0,0.2348,0.2349,0,0,0,0,0,0,0,0,0.1916,0.1927,0.2066,0.2073,0.2081,0.2163,0.2107,0.2198,0.2215,0.2162,0.2219,0.222,0.2277,0.2285,0.2298,0.2331,0.2336,0.2348,0.235,0.2351,0.2352,0,0,0,0,0,0,0,0.1909,0.1923,0.2058,0.2068,0.2077,0.2084,0.2099,0.2124,0.2207,0.2167,0.2174,0.2191,0.2281,0.2295,0.2302,0.2338,0.2348,0.2351,0.2353,0.2354,0.2512,0.2514,0,0,0,0,0,0,0.1903,0.1917,0.2054,0.2062,0.2004,0.2087,0.2103,0.2132,0.2207,0.2221,0.2189,0.2194,0.2289,0.2298,0.2306,0.2421,0.2351,0.2354,0.2356,0.251,0.2512,0.2515,0,0,0,0,0,0,0.1899,0.1914,0.205,0.1993,0.2012,0.2089,0.2121,0.2134,0.2194,0.2225,0.2239,0.2242,0.2291,0.2302,0.2374,0.2422,0.2355,0.2358,0.2507,0.251,0.2514,0.2571,0,0,0,0,0,0,0.1893,0.1912,0.195,0.1993,0.2015,0.2103,0.212,0.2135,0.2201,0.221,0.2273,0.2283,0.2293,0.2369,0.2377,0.2425,0.2361,0.2504,0.2508,0.2512,0.2566,0.2576,0.2585,0,0,0,0,0,0.1886,0.1922,0.1951,0.1969,0.2058,0.2104,0.2116,0.2172,0.2202,0.2232,0.2284,0.2284,0.2403,0.2374,0.2382,0.2432,0.2502,0.2507,0.2512,0.2562,0.2574,0.2584,0,0,0,0,0,0,0.1859,0.1936,0.1968,0.2028,0.2077,0.2121,0.2161,0.2195,0.2259,0.2282,0.2308,0.2322,0.2404,0.241,0.2378,0.2492,0.2454,0.2461,0.2489,0.2501,0.251,0.2514,0.2363,0,0,0,0,0,0.187,0.1926,0.1984,0.2037,0.2064,0.212,0.2155,0.2194,0.2246,0.2278,0.2324,0.2375,0.2423,0.2457,0.2495,0.2552,0.2564,0.2592,0.2602,0.2609,0.2621,0.2687,0.2702,0.2532,0.2532,0.2532,0,0,0.1874,0.1926,0.1958,0.2036,0.2081,0.2131,0.2146,0.2211,0.2265,0.2278,0.2375,0.241,0.2447,0.2518,0.2555,0.2535,0.2664,0.2616,0.2622,0.2629,0.2694,0.271,0.2725,0.2536,0.2535,0.2534,0,0,0.189,0.1957,0.2002,0.2051,0.2131,0.2165,0.2193,0.2262,0.2311,0.2392,0.2423,0.249,0.2561,0.2599,0.2624,0.2706,0.2709,0.2725,0.2777,0.2841,0.2855,0.2868,0.2895,0.291,0.2729,0.2729,0.273,0,0.1893,0.1963,0.2019,0.2074,0.2123,0.2185,0.2236,0.2291,0.238,0.2427,0.2436,0.2571,0.2599,0.2688,0.2721,0.2727,0.2754,0.2728,0.2852,0.2865,0.2877,0.2902,0.2918,0.2733,0.2732,0.2732,0.2732,0,0.193,0.2004,0.2035,0.2131,0.2186,0.2243,0.2319,0.2389,0.2453,0.2508,0.2621,0.2664,0.2747,0.2765,0.277,0.2876,0.2864,0.2853,0.2819,0.2897,0.2919,0.2934,0.2738,0.2737,0.2736,0.2735,0,0,0.1891,0.2031,0.2049,0.2102,0.2225,0.2263,0.2369,0.2465,0.2543,0.2631,0.2728,0.2812,0.2851,0.2883,0.2904,0.2955,0.3055,0.2949,0.2951,0.2967,0.3187,0.2966,0.2961,0.3075,0.3078,0.3081,0.3163,0,0.1905,0.2001,0.2078,0.218,0.2232,0.2333,0.242,0.2524,0.2616,0.2726,0.2798,0.29,0.2892,0.2947,0.3002,0.3055,0.3101,0.3033,0.3116,0.3118,0.2905,0.2973,0.3091,0.3174,0.3178,0.318,0.3182,0,0.1911,0.1982,0.2076,0.2209,0.2242,0.2317,0.2468,0.2556,0.272,0.2802,0.292,0.2985,0.3104,0.3072,0.3203,0.3168,0.3189,0.3206,0.3209,0.2994,0.2925,0.3084,0.3209,0.3207,0.3205,0.3203,0.3201,0,0.1836,0.1975,0.2049,0.2099,0.226,0.233,0.2419,0.2583,0.2676,0.2866,0.2962,0.3095,0.3189,0.325,0.33,0.3277,0.3413,0.338,0.3193,0.3178,0.3326,0.3311,0.346,0.346,0.346,0.346,0.3459,0,0.1803,0.1866,0.2026,0.2071,0.2169,0.2296,0.2422,0.254,0.2723,0.2838,0.3,0.3099,0.3245,0.3334,0.3348,0.3313,0.346,0.321,0.319,0.3346,0.3333,0.3335,0.332,0.3463,0.3462,0.3461,0.3461,0,0.1697,0.1813,0.1907,0.2081,0.2142,0.221,0.2414,0.2499,0.2697,0.2856,0.293,0.3149,0.3262,0.3353,0.3457,0.3356,0.3353,0.3299,0.346,0.3446,0.3061,0.3048,0.3096,0.3089,0.3083,0.3078,0.3074,0,0.1643,0.1689,0.1882,0.1952,0.2037,0.2168,0.226,0.2468,0.2558,0.2852,0.2903,0.3105,0.3218,0.3193,0.3297,0.3299,0.3255,0.3221,0.313,0.3051,0.3028,0.3024,0.3019,0.3064,0.3063,0.3061,0.306,0,0.154,0.1631,0.171,0.1854,0.1966,0.2066,0.2205,0.2253,0.2492,0.27,0.282,0.2892,0.3007,0.3067,0.3089,0.3083,0.3225,0.3158,0.3169,0.3084,0.3014,0.2996,0.2998,0.3039,0.3042,0.3044,0.3045,0,0.1476,0.1496,0.1629,0.1736,0.1868,0.1925,0.2013,0.2123,0.2242,0.2547,0.2579,0.2796,0.2986,0.2956,0.298,0.2954,0.2899,0.2784,0.2813,0.2837,0.2709,0.2579,0.2461,0,0,0,0,0,0.1403,0.1425,0.1505,0.1619,0.1734,0.1814,0.1967,0.2059,0.2278,0.2297,0.2433,0.2529,0.2601,0.2706,0.2625,0.2836,0.2891,0.2725,0.2768,0.2925,0.2949,0.2819,0,0,0,0,0,0,0.1367,0.1436,0.1455,0.1494,0.1546,0.1654,0.1743,0.1887,0.1899,0.2135,0.2186,0.237,0.2469,0.2632,0.2583,0.2606,0.2575,0.2852,0.2844,0.2912,0.2933,0.2952,0.2827,0,0,0,0,0]},{"header":{"parameterUnit":"m.s-1","parameterCategory":2,"la1":30.2991,"la2":30.254,"lo1":-89.0895,"lo2":-89.0444,"dy":0.0017,"dx":0.0017,"nx":28,"ny":28,"refTime":"2026-01-29T09:00:00:Z","depth":"4","parameterNumber":3,"parameterNumberName":"V-component_of_CURRENTS"},"data":[0,0,0,0,0,0,0,0,0,0,0,0,0,0,0,0,0,0,0,0,0,0,0,0,0,0,0,0,0,0,0,0,0,0,0,0,0,0,0,0,0,0,0,0,0,0,0,0,0,0,0,0,0,0,0,0,0,0,0.0251,0.025,0,0.0209,0.0208,0.0208,0.0185,0.0184,0.0184,0.0184,0.0135,0.0134,0.0132,0,0,0,0,0,0,0,0,0,0,0,0,0,0.0268,0.0268,0.0251,0.025,0.025,0.0209,0.0208,0.0208,0.0185,0.0184,0.0184,0.0184,0.0135,0.0134,0.0132,0,0,0,0,0,0,0,0,0,0,0,0,0,0.0247,0.0268,0.0251,0.0233,0.0231,0.0209,0.0208,0.0207,0.0185,0.0184,0.0184,0.0184,0.0136,0.0134,0.0132,0.0122,0,0,0.0126,0.0125,0,0,0,0,0,0,0,0,0.0248,0.0246,0.0236,0.0234,0.0232,0.0202,0.0196,0.0178,0.0185,0.0202,0.0184,0.0184,0.0157,0.0153,0.0145,0.012,0.0118,0.0126,0.0125,0.0124,0.0123,0,0,0,0,0,0,0,0.0249,0.0247,0.0234,0.0236,0.0233,0.0213,0.021,0.0192,0.018,0.0201,0.0199,0.0194,0.0155,0.0147,0.0144,0.0117,0.0126,0.0124,0.0123,0.0122,0.0094,0.0095,0,0,0,0,0,0,0.0257,0.0249,0.0235,0.0233,0.024,0.0213,0.021,0.0212,0.018,0.0176,0.0194,0.0193,0.015,0.0146,0.0142,0.0152,0.0124,0.0122,0.0121,0.0094,0.0094,0.0095,0,0,0,0,0,0,0.0258,0.0257,0.0237,0.0239,0.0236,0.0213,0.0215,0.0211,0.0208,0.0176,0.0171,0.0197,0.015,0.0145,0.0136,0.0149,0.0121,0.012,0.0093,0.0094,0.0095,0.0157,0,0,0,0,0,0,0.0259,0.0257,0.0263,0.024,0.0236,0.0235,0.0215,0.021,0.0205,0.0204,0.0176,0.0171,0.015,0.0139,0.0134,0.0146,0.0118,0.0093,0.0094,0.0094,0.0154,0.016,0.0164,0,0,0,0,0,0.0259,0.027,0.0264,0.0262,0.0245,0.0235,0.0231,0.0214,0.0206,0.021,0.0192,0.0172,0.014,0.0138,0.0132,0.0144,0.0093,0.0094,0.0094,0.0152,0.0159,0.0164,0,0,0,0,0,0,0.0277,0.0268,0.0261,0.0267,0.0257,0.0232,0.0233,0.0221,0.0209,0.0208,0.0178,0.0172,0.0167,0.0147,0.0145,0.0137,0.0113,0.0113,0.0159,0.0165,0.0169,0.0184,0.0117,0,0,0,0,0,0.0285,0.0292,0.0276,0.0281,0.0279,0.0257,0.0252,0.0242,0.0226,0.0221,0.0201,0.0181,0.0165,0.0159,0.014,0.0137,0.01,0.014,0.0145,0.0149,0.0156,0.0113,0.0115,0.0098,0.0098,0.0098,0,0,0.0291,0.0287,0.029,0.0285,0.0275,0.0284,0.0254,0.0252,0.026,0.0217,0.0222,0.0196,0.0167,0.0165,0.0161,0.0151,0.0132,0.015,0.0154,0.0159,0.0115,0.0116,0.0118,0.0098,0.0098,0.0098,0,0,0.031,0.0307,0.0321,0.0319,0.0313,0.0304,0.0308,0.0291,0.0285,0.0284,0.0254,0.0239,0.0217,0.0199,0.0187,0.0206,0.0158,0.0199,0.0238,0.0197,0.0198,0.0198,0.0143,0.0138,0.0204,0.0204,0.0204,0,0.0317,0.0337,0.0322,0.0337,0.0345,0.0319,0.0341,0.033,0.0312,0.0311,0.0296,0.0261,0.0235,0.0229,0.0236,0.0218,0.018,0.0221,0.0203,0.0203,0.0203,0.0146,0.0139,0.0207,0.0207,0.0207,0.0206,0,0.0347,0.0367,0.0376,0.0392,0.0398,0.0411,0.04,0.0399,0.0388,0.0376,0.0367,0.0327,0.0308,0.0295,0.0272,0.026,0.0228,0.0213,0.0191,0.0208,0.0147,0.0139,0.0212,0.0211,0.021,0.0209,0,0,0.0357,0.0392,0.0397,0.0426,0.0433,0.0445,0.0454,0.0461,0.0477,0.0445,0.0454,0.0418,0.0392,0.0376,0.034,0.0304,0.0261,0.0263,0.0259,0.0212,0.0155,0.013,0.0118,0.0241,0.024,0.024,0.011,0,0.0389,0.0441,0.0446,0.0502,0.0533,0.0521,0.0538,0.0537,0.053,0.0528,0.0476,0.0475,0.0425,0.0422,0.0375,0.0293,0.0245,0.0296,0.0142,0.0138,0.0116,0.0111,0.0238,0.0104,0.0102,0.0101,0.01,0,0.0422,0.0457,0.0518,0.0575,0.0587,0.0614,0.0647,0.066,0.0641,0.0635,0.061,0.0567,0.0512,0.0469,0.033,0.0364,0.0267,0.0195,0.0188,0.014,0.0099,0.0083,0.0085,0.0086,0.0087,0.0088,0.0089,0,0.0454,0.0513,0.0571,0.0589,0.0638,0.0664,0.0689,0.0694,0.0725,0.0708,0.0719,0.0638,0.0607,0.0479,0.0321,0.0327,0.0152,0.014,0.002,0.0016,0.0051,0.0052,0.0038,0.0038,0.0038,0.0039,0.0039,0,0.0496,0.0547,0.0596,0.0631,0.0707,0.0718,0.0795,0.0799,0.0819,0.086,0.0785,0.0782,0.061,0.0487,0.0335,0.0148,0.0157,0.0023,-0.0016,0.0078,0.0084,0.0044,0.0047,0.0034,0.0035,0.0036,0.0037,0,0.0535,0.0562,0.0639,0.0701,0.0731,0.0786,0.0881,0.0933,0.0936,0.0981,0.0979,0.0886,0.0726,0.0529,0.031,0.0178,-0.0003,-0.0074,0.0027,-0.0004,-0.0117,-0.011,-0.0211,-0.0213,-0.0215,-0.0216,-0.0217,0,0.0564,0.0604,0.0696,0.075,0.0789,0.0878,0.0945,0.0991,0.1045,0.1042,0.1058,0.0927,0.0833,0.0506,0.0291,-0.0016,-0.0056,-0.016,-0.0125,-0.0113,-0.0141,-0.0131,-0.0122,-0.022,-0.022,-0.0221,-0.0221,0,0.0618,0.0646,0.0708,0.0812,0.0898,0.1001,0.1091,0.1137,0.1174,0.1183,0.1128,0.096,0.077,0.0512,0.0263,0.0048,-0.0095,-0.0178,-0.0175,-0.0143,-0.0125,-0.0149,-0.0138,-0.0227,-0.0226,-0.0226,-0.0225,0,0.0655,0.0703,0.0774,0.0868,0.0978,0.1072,0.1128,0.1181,0.1228,0.1211,0.1188,0.0986,0.0872,0.0543,0.0317,0.0096,0.0048,-0.0018,-0.0024,-0.0021,0.0071,0.0125,0.0066,0,0,0,0,0,0.0684,0.0734,0.0824,0.092,0.1029,0.1093,0.1199,0.1241,0.1271,0.1247,0.122,0.1043,0.0715,0.0578,0.0354,0.0273,-0.0004,0.0001,-0.0087,-0.0258,-0.0252,-0.0178,0,0,0,0,0,0,0.0701,0.0783,0.0819,0.0942,0.1015,0.114,0.1212,0.1241,0.1225,0.122,0.1056,0.0978,0.0665,0.0842,0.0347,0.028,0.0191,-0.0148,-0.0153,-0.0262,-0.0256,-0.0251,-0.0173,0,0,0,0,0]}]]